Погода в Бхубанешваре

Индия     20°16′30″N   85°50′15″E
темп.,
°C
ветер,
м/с
пор.,
м/с
влажн.,
%
обл.,
%
осадки,
мм/ч
давл.,
гПа
погр.,
м
4 декабря, сб
сб423:30+20с31085100 1.7 1014438
02:30+19сз4692100 4.8 1011267
05:30+18с61398100 41.3 1012546
08:30+20св71396100 24.1 1015639
11:30+20св71394100 29.1 1014657
14:30+19ссв71493100 1.4 1011561
17:30+20ссв61492100 2.8 1012570
20:30+20св61493100 0.9 1014622
5 декабря, вс
вс523:30+19св6139596 2.2 1013546
02:30+19ссв61294100 0.6 1012544
05:30+20ссв71394100 7.4 1012477
08:30+20ссв61393100 1.7 1014534
11:30+20ссв61393100 3.3 1013577
14:30+21ссв71390100 0.1 1010555
17:30+21ссв71391100 0.1 1011584
20:30+20ссв61491100 0.4 1012493
6 декабря, пн
пн623:30+20ссв71392100 2.0 1012474
02:30+21с61294100 1.4 1010533
05:30+21с51194100 3.3 1010579
08:30+21ссз51194100 1.1 1013519
11:30+22ссз4109394 2.1 1012495
14:30+26с577585 0.0 1009827
17:30+22ссв23880 0.0 101043
20:30+21св23920 0.0 101345
7 декабря, вт
вт723:30+21ссв11932 0.0 101215
02:30+21ссз11930 0.0 101111
05:30+20с22940 0.0 101221
08:30+24с23780 0.0 1015380
11:30+27ссв23602 0.0 10141092
14:30+28с225422 0.0 10111470
17:30+25сз1166100 0.0 101211
20:30+23вюв227189 0.0 101413
8 декабря, ср
ср823:30+22всв118185 0.0 101411
02:30+21с11810 0.0 101312
05:30+20с12820 0.0 101412
08:30+24ссв34700 0.0 1017319
11:30+28св44530 0.0 10161199
14:30+28св34470 0.0 10131565
17:30+24всв23645 0.0 101428
20:30+22в23770 0.0 101642